Weather reports worldwide

Advertisment
Catania/Sigonella, Italy (16459): temperature & dewpoint: 10.08.2018 18:00:00 - 16.08.2018 18:00:00 (CEST)Catania/Sigonella, Italy (16459): wind speed: 10.08.2018 18:00:00 - 16.08.2018 18:00:00 (CEST)Catania/Sigonella, Italy (16459): wind direction: 10.08.2018 18:00:00 - 16.08.2018 18:00:00 (CEST)Catania/Sigonella, Italy (16459): reduced air pressure: 10.08.2018 18:00:00 - 16.08.2018 18:00:00 (CEST)Catania/Sigonella, Italy (16459): visibility: 10.08.2018 18:00:00 - 16.08.2018 18:00:00 (CEST)
Date & Time tt [°C] td [°C] ff [km/h] ff [kn] dd ppp [hPa] vv [km]
16.08.2018 18:00:00 29,0 23,0 29 16 E - 10
16.08.2018 17:00:00 32,0 21,8 28 15 E 1012,0 15
16.08.2018 16:00:00 32,0 21,0 21 11 E - 10
16.08.2018 15:00:00 32,0 20,0 16 9 E - 10
16.08.2018 14:00:00 32,0 21,2 18 10 E 1012,7 15
16.08.2018 13:00:00 31,0 21,0 11 6 E - 10
16.08.2018 12:00:00 30,0 22,0 5 3 SE - 10
16.08.2018 11:00:00 28,0 22,7 4 2 SSW 1013,2 15
16.08.2018 10:00:00 26,0 24,0 8 4 W - 10
16.08.2018 09:00:00 23,0 23,0 9 5 W - 10
16.08.2018 08:00:00 20,0 20,0 8 4 WNW 1012,5 10
16.08.2018 07:00:00 19,0 19,0 4 2 WSW - 10
16.08.2018 06:00:00 19,0 19,0 2 1 S - 10
16.08.2018 05:00:00 19,6 19,6 4 2 NNE 1011,8 10
16.08.2018 04:00:00 20,0 20,0 8 4 S - 10
16.08.2018 03:00:00 20,0 20,0 8 4 W - 10
16.08.2018 02:00:00 20,0 20,0 4 2 WNW 1012,5 10
16.08.2018 01:00:00 21,0 21,0 16 9 WNW - 10
16.08.2018 00:00:00 21,0 21,0 15 8 W - 10
15.08.2018 23:00:00 21,2 21,2 13 7 WSW 1013,0 10
15.08.2018 22:00:00 21,0 21,0 11 6 WSW - 10
15.08.2018 21:00:00 22,0 22,0 15 8 NW - 10
15.08.2018 20:00:00 22,2 22,2 9 5 W 1012,4 10
15.08.2018 19:00:00 22,0 22,0 8 4 N - 10
15.08.2018 18:00:00 22,0 22,0 5 3 SE - 10
15.08.2018 17:00:00 23,0 23,0 11 6 NE 1012,4 8
15.08.2018 16:00:00 26,0 20,0 22 12 N - 10
15.08.2018 15:00:00 30,0 24,0 44 24 ENE - 10
15.08.2018 14:00:00 32,4 25,2 29 16 ESE 1011,3 12
15.08.2018 13:00:00 34,0 19,0 22 12 E - 10
15.08.2018 12:00:00 33,0 21,0 8 4 SSE - 10
15.08.2018 11:00:00 31,0 22,9 8 4 SSE 1012,2 12
15.08.2018 10:00:00 29,0 27,0 11 6 ESE - 10
15.08.2018 09:00:00 28,0 25,0 5 3 NW - 10
15.08.2018 08:00:00 24,8 24,8 16 9 WNW 1011,8 10
15.08.2018 07:00:00 23,0 23,0 13 7 WSW - 10
15.08.2018 06:00:00 22,0 22,0 9 5 W - 10
15.08.2018 05:00:00 21,8 21,8 8 4 WSW 1011,6 13
15.08.2018 04:00:00 22,0 22,0 8 4 WNW - 10
15.08.2018 03:00:00 22,0 22,0 11 6 WSW - 10
15.08.2018 02:00:00 22,4 22,4 9 5 W 1011,8 13
15.08.2018 01:00:00 23,0 23,0 8 4 W - 10
15.08.2018 00:00:00 22,0 22,0 8 4 WNW - 10
14.08.2018 23:00:00 21,6 21,6 4 2 SSW 1013,0 13
14.08.2018 22:00:00 23,0 23,0 9 5 SSW - 10
14.08.2018 21:00:00 23,0 23,0 9 5 W - 10
14.08.2018 20:00:00 23,0 23,0 11 6 NW 1013,1 8
14.08.2018 19:00:00 22,0 22,0 11 6 SW - 7
14.08.2018 18:00:00 23,0 23,0 28 15 W - 6
14.08.2018 17:00:00 31,0 23,7 24 13 ESE 1011,4 10
14.08.2018 16:00:00 32,0 19,0 29 16 ENE - 10
14.08.2018 15:00:00 35,0 18,0 29 16 ENE - 10
14.08.2018 14:00:00 37,4 15,8 8 4 S 1011,4 10
14.08.2018 13:00:00 37,0 17,0 5 3 SSW - 10
14.08.2018 12:00:00 35,0 17,0 8 4 W - 10
14.08.2018 11:00:00 33,0 17,2 5 3 SSW 1013,8 10
14.08.2018 10:00:00 30,0 22,0 8 4 W - 10
14.08.2018 09:00:00 28,0 23,0 9 5 NW - 10
14.08.2018 08:00:00 24,8 24,8 8 4 W 1014,2 10
14.08.2018 07:00:00 24,0 24,0 5 3 WNW - 10
14.08.2018 06:00:00 24,0 24,0 8 4 W - 10
14.08.2018 05:00:00 24,8 24,0 9 5 SW 1013,5 10
14.08.2018 04:00:00 - - - - - - -
14.08.2018 03:00:00 26,0 20,0 8 4 SW - 10
14.08.2018 02:00:00 25,8 23,1 11 6 NW 1013,5 10
14.08.2018 01:00:00 28,0 21,0 9 5 NW - 10
14.08.2018 00:00:00 28,0 22,0 9 5 WNW - 10
13.08.2018 23:00:00 28,8 20,0 8 4 WSW 1013,3 10
13.08.2018 22:00:00 29,0 21,0 9 5 W - 10
13.08.2018 21:00:00 30,0 19,0 9 5 W - 10
13.08.2018 20:00:00 31,0 19,0 11 6 WSW 1012,7 13
13.08.2018 19:00:00 32,0 20,0 16 9 WSW - 10
13.08.2018 18:00:00 33,0 20,0 8 4 N - 10
13.08.2018 17:00:00 33,8 20,2 16 9 NE 1013,1 15
13.08.2018 16:00:00 35,0 19,0 16 9 ENE - 10
13.08.2018 15:00:00 36,0 20,0 22 12 ENE - 10
13.08.2018 14:00:00 35,6 18,7 8 4 WSW 1014,5 13
13.08.2018 13:00:00 35,0 19,0 5 3 E - 10
13.08.2018 12:00:00 35,0 21,0 13 7 W - 10
13.08.2018 11:00:00 33,0 22,8 11 6 W 1015,5 13
13.08.2018 10:00:00 30,0 24,0 9 5 WNW - 10
13.08.2018 09:00:00 28,0 24,0 11 6 W - 10
13.08.2018 08:00:00 23,8 23,8 9 5 W 1015,4 15
13.08.2018 07:00:00 22,0 22,0 13 7 W - 10
13.08.2018 06:00:00 23,0 23,0 11 6 W - 10
13.08.2018 05:00:00 23,4 23,4 9 5 W 1015,2 10
13.08.2018 04:00:00 23,0 23,0 13 7 WNW - 10
13.08.2018 03:00:00 23,0 23,0 4 2 WSW - 10
13.08.2018 02:00:00 23,4 23,4 9 5 W 1016,0 10
13.08.2018 01:00:00 24,0 24,0 9 5 W - 10
13.08.2018 00:00:00 25,0 25,0 8 4 WNW - 10
12.08.2018 23:00:00 24,8 24,8 13 7 WNW 1016,7 10
12.08.2018 22:00:00 25,0 25,0 11 6 W - 10
12.08.2018 21:00:00 25,0 25,0 9 5 SW - 10
12.08.2018 20:00:00 26,2 26,2 2 1 WNW 1016,7 10
12.08.2018 19:00:00 27,0 26,0 21 11 NW - 10
12.08.2018 18:00:00 30,0 24,0 16 9 NW - 10
12.08.2018 17:00:00 31,8 23,3 11 6 SSE 1015,9 10
12.08.2018 16:00:00 32,0 20,0 26 14 SE - 10
12.08.2018 15:00:00 35,0 22,0 24 13 E - 10
12.08.2018 14:00:00 34,2 21,6 16 9 E 1017,3 10
12.08.2018 13:00:00 35,0 24,0 18 10 ENE - 10
12.08.2018 12:00:00 34,0 24,0 13 7 ESE - 10
12.08.2018 11:00:00 33,8 24,1 4 2 E 1017,6 10
12.08.2018 10:00:00 32,0 23,0 5 3 NW - 10
12.08.2018 09:00:00 28,0 24,0 5 3 W - 10
12.08.2018 08:00:00 25,0 25,0 9 5 W 1017,3 10
12.08.2018 07:00:00 24,0 24,0 11 6 WSW - 10
12.08.2018 06:00:00 24,0 24,0 9 5 W - 10
12.08.2018 05:00:00 23,8 23,8 11 6 W 1016,4 10
12.08.2018 04:00:00 24,0 24,0 9 5 W - 10
12.08.2018 03:00:00 24,0 24,0 9 5 WSW - 10
12.08.2018 02:00:00 24,6 24,6 5 3 WSW 1017,4 10
12.08.2018 01:00:00 25,0 25,0 2 1 WNW - 10
12.08.2018 00:00:00 26,0 25,0 8 4 SW - 10
11.08.2018 23:00:00 27,6 25,6 2 1 SSW 1017,4 10
11.08.2018 22:00:00 28,0 24,0 2 1 SSE - 10
11.08.2018 21:00:00 29,0 24,0 8 4 E - 10
11.08.2018 20:00:00 31,2 22,5 18 10 E 1016,9 10
11.08.2018 19:00:00 32,0 23,0 24 13 E - 10
11.08.2018 18:00:00 33,0 23,0 26 14 E - 10
11.08.2018 17:00:00 33,6 23,3 31 17 E 1016,6 10
11.08.2018 16:00:00 35,0 23,0 26 14 ENE - 10
11.08.2018 15:00:00 35,0 22,0 21 11 E - 10
11.08.2018 14:00:00 35,2 22,5 21 11 E 1017,8 10
11.08.2018 13:00:00 35,0 22,0 18 10 E - 10
11.08.2018 12:00:00 35,0 21,0 11 6 ENE - 10
11.08.2018 11:00:00 33,8 22,6 9 5 ESE 1018,5 15
11.08.2018 10:00:00 32,0 25,0 4 2 S - 10
11.08.2018 09:00:00 27,0 24,0 5 3 W - 10
11.08.2018 08:00:00 24,6 24,6 2 1 WNW 1018,6 10
11.08.2018 07:00:00 21,0 21,0 4 2 WSW - 10
11.08.2018 06:00:00 22,0 22,0 4 2 W - 10
11.08.2018 05:00:00 24,6 24,6 5 3 W 1018,1 10
11.08.2018 04:00:00 25,0 25,0 8 4 NNW - 10
11.08.2018 03:00:00 25,0 3,0 11 6 W - 10
11.08.2018 02:00:00 24,6 24,6 9 5 WSW 1019,0 10
11.08.2018 01:00:00 27,0 27,0 8 4 WNW - 10
11.08.2018 00:00:00 27,0 27,0 2 1 WNW - 10
10.08.2018 23:00:00 28,0 28,0 4 2 WSW 1019,3 10
10.08.2018 22:00:00 28,0 28,0 8 4 SE - 10
10.08.2018 21:00:00 29,0 25,0 15 8 ESE - 10
10.08.2018 20:00:00 30,0 27,4 18 10 E 1018,3 10
10.08.2018 19:00:00 31,0 27,0 24 13 ESE - 10
10.08.2018 18:00:00 33,0 22,0 29 16 E - 10

tt = temperature
td = dewpoint
ff = wind speed
dd = wind direction
ppp = reduced air pressure
vv = visibility

Next stations